GW1849 Weather Reports


time (UTC)temp
C
wind
direction
speed
KPH
gust
KPH
rain 1hr
cm
rain 24hr
cm
rain mn
cm
humidity
%
barometer
mb
20260506015623 17 225 0.0 0.0 0.00 0.00 0.00 43 1012.8
20260506014419 17 246 0.0 0.0 0.00 0.00 0.00 41 1012.7
20260506013322 17 249 0.0 0.0 0.00 0.00 0.00 42 1012.7
20260506012226 17 221 0.0 0.0 0.00 0.00 0.00 42 1012.6
20260506011147 18 269 3.2 3.2 0.00 0.00 0.00 42 1012.7
20260506010247 18 224 0.0 0.0 0.00 0.00 0.00 43 1012.6
20260506005150 18 216 0.0 0.0 0.00 0.00 0.00 42 1012.5
20260506003946 18 233 0.0 0.0 0.00 0.00 0.00 39 1012.6
20260506002922 18 264 0.0 0.0 0.00 0.00 0.00 40 1012.8
20260506001826 17 228 0.0 0.0 0.00 0.00 0.00 42 1012.7
20260506000746 18 265 0.0 3.2 0.00 0.00 0.00 43 1012.6
20260505235738 18 273 4.8 8.0 0.00 0.00 0.00 42 1012.8
20260505234642 18 267 3.2 3.2 0.00 0.00 0.00 40 1012.4
20260505233727 17 158 0.0 0.0 0.00 0.00 0.00 39 1012.4
20260505232702 17 203 0.0 3.2 0.00 0.00 0.00 40 1012.8
20260505231442 17 296 0.0 3.2 0.00 0.00 0.00 41 1012.7
20260505230406 17 265 0.0 3.2 0.00 0.00 0.00 43 1013.0
20260505225323 19 213 0.0 0.0 0.00 0.00 0.00 43 1012.8
20260505224226 19 250 0.0 0.0 0.00 0.00 0.00 45 1012.9
20260505223219 18 180 0.0 0.0 0.00 0.00 0.00 45 1013.2
20260505222122 17 261 1.6 3.2 0.00 0.00 0.00 50 1013.0
20260505221255 17 273 0.0 3.2 0.00 0.00 0.00 47 1013.5
20260505220034 18 237 0.0 3.2 0.00 0.00 0.00 47 1013.5
20260505215026 18 232 0.0 0.0 0.00 0.00 0.00 45 1013.6
20260505214006 17 220 0.0 0.0 0.00 0.00 0.00 47 1013.5
20260505212939 17 268 1.6 3.2 0.00 0.00 0.00 45 1013.5
20260505211810 17 191 0.0 8.0 0.00 0.00 0.00 47 1013.8
20260505210746 17 125 0.0 3.2 0.00 0.00 0.00 50 1013.8
20260505205650 17 164 0.0 0.0 0.00 0.00 0.00 50 1013.8
20260505204642 16 241 0.0 0.0 0.00 0.00 0.00 51 1013.8
20260505203618 16 259 0.0 3.2 0.00 0.00 0.00 56 1014.0
20260505202702 17 233 0.0 0.0 0.00 0.00 0.00 55 1014.0
20260505201442 16 218 0.0 0.0 0.00 0.00 0.00 55 1013.9
20260505200406 15 281 1.6 3.2 0.00 0.00 0.00 59 1014.2
20260505195354 15 243 0.0 3.2 0.00 0.00 0.00 63 1014.2
20260505194346 13 277 3.2 3.2 0.00 0.00 0.00 65 1013.9
20260505193338 15 235 0.0 0.0 0.00 0.00 0.00 59 1013.9
20260505192438 15 251 0.0 3.2 0.00 0.00 0.00 62 1014.2
20260505191203 13 204 0.0 0.0 0.00 0.00 0.00 67 1013.9
20260505190122 13 245 0.0 0.0 0.00 0.00 0.00 70 1013.8
20260505185026 15 238 0.0 0.0 0.00 0.00 0.00 67 1014.1
20260505183930 13 155 0.0 0.0 0.00 0.00 0.00 66 1013.9
20260505182922 13 194 0.0 0.0 0.00 0.00 0.00 73 1014.0
20260505181858 12 261 0.0 0.0 0.00 0.00 0.00 75 1014.0
20260505180802 12 163 0.0 0.0 0.00 0.00 0.00 79 1013.9
20260505175722 11 237 0.0 0.0 0.00 0.00 0.00 84 1013.8
20260505174847 10 169 0.0 0.0 0.00 0.00 0.00 84 1013.7
20260505173634 9 229 0.0 0.0 0.00 0.00 0.00 88 1013.8
20260505172538 8 186 0.0 0.0 0.00 0.00 0.00 91 1013.8
20260505171458 8 172 0.0 0.0 0.00 0.00 0.00 94 1013.6
20260505170434 7 166 0.0 3.2 0.00 0.00 0.00 94 1013.5
20260505165426 7 183 0.0 0.0 0.00 0.00 0.00 96 1013.6
20260505164330 7 166 1.6 3.2 0.00 0.00 0.00 96 1013.5
20260505163217 7 156 1.6 3.2 0.00 0.00 0.00 96 1013.3
20260505162018 7 147 6.4 8.0 0.00 0.00 0.00 97 1013.3
20260505160850 7 160 0.0 0.0 0.00 0.00 0.00 97 1012.9
20260505152642 6 188 0.0 0.0 0.00 0.00 0.00 98 1012.8
20260505151746 6 184 0.0 0.0 0.00 0.00 0.00 98 1012.7
20260505150450 6 179 0.0 0.0 0.00 0.00 0.00 98 1012.7
20260505124642 5 196 0.0 0.0 0.00 0.00 0.00 98 1011.5
20260505123634 5 198 0.0 0.0 0.00 0.00 0.00 98 1011.2
20260505122806 5 196 0.0 0.0 0.00 0.00 0.00 98 1011.3
20260505121602 5 185 0.0 0.0 0.00 0.00 0.00 98 1011.3
20260505120522 5 200 0.0 0.0 0.00 0.00 0.00 98 1011.4
20260505115426 5 196 0.0 0.0 0.00 0.00 0.00 98 1011.1
20260505114330 5 201 0.0 0.0 0.00 0.00 0.00 98 1011.3
20260505113250 6 185 0.0 0.0 0.00 0.00 0.00 98 1011.2
20260505112226 5 188 0.0 0.0 0.00 0.00 0.00 98 1011.2
20260505111201 6 193 0.0 0.0 0.00 0.00 0.00 98 1011.2
20260505110138 6 177 0.0 0.0 0.00 0.00 0.00 98 1011.5
20260505101857 5 163 0.0 0.0 0.00 0.00 0.00 98 1011.4
20260505101030 5 169 0.0 0.0 0.00 0.00 0.00 98 1011.3
20260505095842 5 185 0.0 0.0 0.00 0.00 0.00 98 1011.6
20260505094806 5 186 0.0 0.0 0.00 0.00 0.00 98 1011.6
20260505093706 5 192 0.0 0.0 0.00 0.00 0.00 98 1011.8
20260505092626 5 190 0.0 0.0 0.00 0.00 0.00 98 1011.6
20260505091602 5 185 0.0 0.0 0.00 0.00 0.00 98 1011.6
20260505090505 5 196 0.0 0.0 0.00 0.00 0.00 98 1011.8
20260505085426 6 191 0.0 0.0 0.00 0.00 0.00 98 1011.9
20260505084546 6 187 0.0 0.0 0.00 0.00 0.00 98 1012.0
20260505083354 6 196 0.0 0.0 0.00 0.00 0.00 97 1012.1
20260505082313 6 202 0.0 0.0 0.00 0.00 0.00 97 1012.0
20260505081307 6 172 0.0 0.0 0.00 0.00 0.00 98 1012.1
20260505080137 6 171 0.0 0.0 0.00 0.00 0.00 97 1012.0
20260505075129 6 188 0.0 0.0 0.00 0.00 0.00 97 1011.5
20260505074121 6 199 0.0 0.0 0.00 0.00 0.00 97 1012.0
20260505073057 6 197 0.0 0.0 0.00 0.00 0.00 97 1012.3
20260505072006 6 200 0.0 0.0 0.00 0.00 0.00 97 1012.5
20260505070938 6 188 0.0 0.0 0.00 0.00 0.00 97 1012.5
20260505065857 6 184 0.0 0.0 0.00 0.00 0.00 97 1012.1
20260505064802 6 180 0.0 0.0 0.00 0.00 0.00 97 1011.8
20260505063737 5 176 0.0 0.0 0.00 0.00 0.00 97 1011.9
20260505062706 6 159 0.0 0.0 0.00 0.00 0.00 97 1011.7
20260505061617 6 189 0.0 0.0 0.00 0.00 0.00 97 1012.0
20260505060537 6 191 0.0 0.0 0.00 0.00 0.00 97 1011.5
20260505055425 6 159 0.0 3.2 0.00 0.00 0.00 97 1011.8
20260505054417 6 175 0.0 0.0 0.00 0.00 0.00 97 1011.6
20260505053407 6 182 0.0 0.0 0.00 0.00 0.00 97 1011.9
20260505052454 6 178 0.0 0.0 0.00 0.00 0.00 97 1012.2
20260505051233 5 168 0.0 0.0 0.00 0.00 0.00 96 1012.1
20260505050121 6 188 0.0 0.0 0.00 0.00 0.00 97 1011.9
20260505040925 5 224 0.0 0.0 0.25 0.00 0.00 96 1012.0
20260505035706 6 257 1.6 3.2 0.25 0.00 0.00 96 1011.5
20260505034641 6 164 0.0 0.0 0.25 0.00 0.00 95 1011.3
20260505033617 6 206 0.0 0.0 0.25 0.00 0.00 94 1010.7
20260505032609 6 144 3.2 8.0 0.25 0.00 0.00 96 1011.5
20260505031545 6 185 1.6 3.2 0.25 0.00 0.00 95 1011.6
20260505030537 6 153 1.6 3.2 0.00 0.00 0.00 95 1011.7
20260505025529 6 167 0.0 0.0 0.00 0.00 0.00 95 1011.9
20260505024521 6 200 0.0 0.0 0.00 0.00 0.00 94 1011.8
20260505023605 6 202 0.0 0.0 0.00 0.00 0.00 94 1011.4
20260505022401 6 187 0.0 0.0 0.25 0.00 0.00 94 1011.1
20260505021321 6 289 0.0 0.0 0.25 0.00 0.00 92 1011.1
20260505020306 6 196 4.8 8.0 0.51 0.00 0.00 86 1010.6